[[{"header":{"parameterUnit":"m.s-1","parameterCategory":1,"la1":30.2991,"la2":30.254,"lo1":-89.0895,"lo2":-89.0444,"dy":0.0017,"dx":0.0017,"nx":28,"ny":28,"refTime":"2025-07-16T03:00:00:Z","depth":0,"parameterNumber":2,"parameterNumberName":"U-component_of_WINDS"},"data":[0,0,0,0,0,0,0,0,0,0,0,0,0,0,0,0,0,0,0,0,0,0,0,0,0,0,0,0,0,0,0,0,0,0,0,0,0,0,0,0,0,0,0,0,0,0,0,0,0,0,0,0,0,0,0,0,0,0,-0.0665,-0.0661,0,-0.0353,-0.0349,-0.0346,-0.0221,-0.0221,-0.0222,-0.0223,0.01,0.0109,0.0119,0,0,0,0,0,0,0,0,0,0,0,0,0,-0.1149,-0.1141,-0.0665,-0.0661,-0.0657,-0.0353,-0.0349,-0.0345,-0.022,-0.0221,-0.0222,-0.0223,0.0097,0.0108,0.0119,0,0,0,0,0,0,0,0,0,0,0,0,0,-0.0898,-0.1138,-0.0666,-0.0559,-0.0546,-0.0354,-0.0349,-0.0343,-0.022,-0.0221,-0.0223,-0.0224,0.0094,0.0107,0.0121,0.0231,0,0,0.0164,0.017,0,0,0,0,0,0,0,0,-0.0913,-0.0881,-0.0578,-0.0566,-0.0551,-0.0327,-0.0401,-0.0151,-0.022,-0.0344,-0.0223,-0.0224,-0.0041,-0.0016,0.0046,0.0246,0.026,0.0165,0.0173,0.0179,0.0183,0,0,0,0,0,0,0,-0.093,-0.0893,-0.0541,-0.0574,-0.0557,-0.0525,-0.049,-0.0353,-0.0189,-0.0333,-0.0323,-0.0288,-0.0033,0.0032,0.0054,0.0264,0.0165,0.0177,0.0186,0.0191,0.0573,0.0575,0,0,0,0,0,0,-0.0966,-0.0909,-0.0551,-0.0532,-0.0739,-0.0515,-0.0477,-0.0398,-0.0191,-0.016,-0.0288,-0.0284,0.0008,0.0038,0.0066,0.021,0.0179,0.0192,0.02,0.0571,0.0573,0.0575,0,0,0,0,0,0,-0.0977,-0.0935,-0.0564,-0.0717,-0.0668,-0.0506,-0.0418,-0.0391,-0.0326,-0.0156,-0.0126,-0.0251,0.0009,0.0046,0.0189,0.0222,0.0199,0.0211,0.0569,0.0572,0.0574,0.0496,0,0,0,0,0,0,-0.0991,-0.094,-0.0898,-0.0717,-0.066,-0.0448,-0.0416,-0.0384,-0.0302,-0.0294,-0.0114,-0.0085,0.0011,0.0167,0.0203,0.0241,0.0222,0.0567,0.057,0.0573,0.0496,0.0495,0.0495,0,0,0,0,0,-0.1009,-0.0932,-0.0896,-0.0854,-0.0604,-0.0446,-0.0413,-0.0305,-0.03,-0.0255,-0.0146,-0.0091,0.0213,0.0181,0.0222,0.0265,0.0565,0.0569,0.0573,0.0496,0.0496,0.0495,0,0,0,0,0,0,-0.1112,-0.0907,-0.0865,-0.0728,-0.0605,-0.0425,-0.0366,-0.031,-0.0185,-0.0183,-0.0053,-0.0013,0.0119,0.0207,0.0168,0.0383,0.0393,0.0406,0.0321,0.0322,0.0321,0.0297,0.0234,0,0,0,0,0,-0.1119,-0.1009,-0.0835,-0.0731,-0.0672,-0.053,-0.0457,-0.0384,-0.0252,-0.0199,-0.0079,0.0048,0.0173,0.0252,0.0376,0.051,0.0552,0.056,0.0559,0.0557,0.0567,0.0646,0.0652,0.0588,0.0588,0.0588,0,0,-0.1132,-0.1006,-0.0945,-0.0748,-0.0645,-0.0532,-0.0487,-0.037,-0.0285,-0.0181,-0.0039,0.0054,0.0205,0.0344,0.0411,0.0421,0.0594,0.0562,0.056,0.0571,0.0651,0.0656,0.0662,0.0591,0.059,0.059,0,0,-0.1098,-0.0993,-0.0894,-0.0791,-0.0635,-0.0541,-0.0517,-0.0345,-0.028,-0.0135,-0.0054,0.005,0.0261,0.0366,0.0447,0.0523,0.0579,0.056,0.0556,0.0632,0.0637,0.0642,0.067,0.0679,0.0568,0.0568,0.0568,0,-0.1134,-0.0963,-0.085,-0.0736,-0.0652,-0.0553,-0.045,-0.0355,-0.0167,-0.011,-0.0102,0.0167,0.0275,0.0441,0.0459,0.0521,0.0554,0.054,0.0627,0.0633,0.0639,0.0668,0.0678,0.0565,0.0565,0.0565,0.0566,0,-0.1013,-0.0895,-0.0834,-0.0655,-0.0563,-0.0456,-0.0325,-0.0245,-0.018,-0.0086,0.0061,0.0195,0.0349,0.0394,0.0459,0.057,0.0571,0.0601,0.0614,0.064,0.0669,0.0681,0.056,0.0561,0.0562,0.0563,0,0,-0.1037,-0.0796,-0.0775,-0.0692,-0.0512,-0.0417,-0.0305,-0.0155,-0.0089,0.0038,0.0137,0.0315,0.0344,0.0436,0.0514,0.058,0.0633,0.0603,0.0609,0.0605,0.0766,0.0742,0.0753,0.0672,0.0674,0.0676,0.0754,0,-0.0978,-0.0774,-0.0668,-0.0508,-0.0397,-0.03,-0.0201,-0.008,0.0011,0.0121,0.0222,0.0346,0.0375,0.0431,0.0501,0.0612,0.0668,0.0608,0.0767,0.0771,0.0726,0.0768,0.0744,0.081,0.0766,0.0768,0.0769,0,-0.0883,-0.0757,-0.0587,-0.0418,-0.0367,-0.0281,-0.0134,-0.0032,0.011,0.0172,0.0274,0.0351,0.0476,0.0479,0.0654,0.061,0.0682,0.0746,0.0752,0.0771,0.0771,0.0789,0.0834,0.0844,0.0788,0.0786,0.0785,0,-0.0916,-0.0704,-0.0574,-0.0506,-0.0306,-0.0247,-0.0161,-0.0021,0.0062,0.0191,0.0247,0.0389,0.0466,0.0575,0.0689,0.0681,0.0853,0.0866,0.091,0.0907,0.0941,0.0938,0.0998,0.0986,0.0986,0.0986,0.0985,0,-0.0861,-0.0761,-0.0586,-0.0506,-0.039,-0.0268,-0.0155,-0.0061,0.0063,0.0164,0.0257,0.035,0.0495,0.0607,0.0697,0.0829,0.0863,0.0918,0.0941,0.091,0.0903,0.0959,0.0957,0.0989,0.0988,0.0987,0.0987,0,-0.0879,-0.0758,-0.061,-0.0433,-0.0386,-0.0308,-0.0155,-0.0072,0.0024,0.0151,0.0188,0.034,0.0477,0.0601,0.0783,0.0844,0.0978,0.1007,0.093,0.0942,0.0979,0.0974,0.1078,0.1099,0.1071,0.1071,0.1071,0,-0.0852,-0.0772,-0.0586,-0.0512,-0.0428,-0.031,-0.0224,-0.01,-0.0014,0.0154,0.0216,0.036,0.0481,0.0696,0.0823,0.0964,0.0997,0.1024,0.1019,0.0986,0.0999,0.0993,0.1002,0.1022,0.1022,0.1022,0.1022,0,-0.0817,-0.076,-0.0641,-0.05,-0.04,-0.0282,-0.0162,-0.0106,0.0041,0.0133,0.0274,0.0368,0.0554,0.0696,0.0851,0.0942,0.1007,0.1022,0.104,0.101,0.0962,0.0989,0.0927,0.1019,0.102,0.102,0.102,0.102,-0.081,-0.0734,-0.0591,-0.046,-0.0356,-0.0246,-0.0159,-0.0052,0.0067,0.0227,0.0294,0.0437,0.0579,0.0794,0.0885,0.1,0.1013,0.1038,0.1045,0.1049,0.1044,0.0943,0.1029,0.1029,0.1029,0.1029,0.103,0,-0.0769,-0.0672,-0.0553,-0.0387,-0.0284,-0.0233,-0.0096,-0.0013,0.0112,0.0238,0.0356,0.0519,0.0657,0.0796,0.0943,0.1008,0.1042,0.1043,0.104,0.106,0.1024,0.0994,0.1013,0.1013,0.1013,0.1013,0.1013,0.1013,-0.0736,-0.0604,-0.053,-0.0345,-0.0248,-0.0108,-0.0034,0.0069,0.0171,0.0348,0.0464,0.0553,0.0685,0.0843,0.0973,0.101,0.1061,0.1053,0.1099,0.1062,0.1062,0.1062,0.1035,0.1063,0.1063,0.1126,0.1127,0.1127]},{"header":{"parameterUnit":"m.s-1","parameterCategory":1,"la1":30.2991,"la2":30.254,"lo1":-89.0895,"lo2":-89.0444,"dy":0.0017,"dx":0.0017,"nx":28,"ny":28,"refTime":"2025-07-16T03:00:00:Z","depth":0,"parameterNumber":3,"parameterNumberName":"V-component_of_WINDS"},"data":[0,0,0,0,0,0,0,0,0,0,0,0,0,0,0,0,0,0,0,0,0,0,0,0,0,0,0,0,0,0,0,0,0,0,0,0,0,0,0,0,0,0,0,0,0,0,0,0,0,0,0,0,0,0,0,0,0,0,4.1423,4.1424,0,4.1523,4.1524,4.1525,4.1437,4.1433,4.143,4.1426,4.1531,4.1537,4.1543,0,0,0,0,0,0,0,0,0,0,0,0,0,4.1155,4.1161,4.1422,4.1424,4.1425,4.1523,4.1524,4.1526,4.1438,4.1433,4.1429,4.1425,4.1529,4.1536,4.1544,0,0,0,0,0,0,0,0,0,0,0,0,0,4.1265,4.1163,4.1422,4.1393,4.1391,4.1523,4.1524,4.1526,4.1439,4.1433,4.1428,4.1423,4.1527,4.1536,4.1545,4.1711,0,0,4.1573,4.1577,0,0,0,0,0,0,0,0,4.1259,4.1275,4.1396,4.1395,4.1394,4.1462,4.1468,4.1588,4.144,4.1421,4.1426,4.142,4.1513,4.1523,4.1554,4.1716,4.172,4.1574,4.158,4.1584,4.1586,0,0,0,0,0,0,0,4.1252,4.127,4.1462,4.1398,4.1396,4.1375,4.1385,4.1491,4.1496,4.1422,4.1416,4.1429,4.1511,4.1545,4.1555,4.1722,4.1574,4.1582,4.1588,4.1591,4.2025,4.2031,0,0,0,0,0,0,4.1247,4.1265,4.1459,4.1465,4.1312,4.1384,4.1395,4.1446,4.1495,4.1497,4.1433,4.1424,4.1532,4.1545,4.1559,4.1757,4.1583,4.1592,4.1597,4.202,4.2027,4.2033,0,0,0,0,0,0,4.1242,4.1265,4.1455,4.1363,4.1386,4.1395,4.1452,4.145,4.1484,4.1503,4.1504,4.1467,4.1528,4.1546,4.1674,4.1759,4.1596,4.1605,4.2013,4.2022,4.203,4.2154,0,0,0,0,0,0,4.1234,4.1264,4.1327,4.1365,4.1391,4.1568,4.1457,4.1456,4.15,4.1489,4.1535,4.1537,4.1525,4.166,4.1683,4.1769,4.1612,4.2005,4.2017,4.2027,4.2143,4.2166,4.2187,0,0,0,0,0,4.1225,4.1358,4.133,4.1354,4.147,4.1573,4.1588,4.1571,4.1507,4.1571,4.1583,4.1536,4.1746,4.1674,4.1699,4.1789,4.1999,4.2013,4.2026,4.2133,4.2162,4.2186,0,0,0,0,0,0,4.133,4.1363,4.1332,4.1482,4.1526,4.1558,4.1638,4.1602,4.1665,4.1653,4.1629,4.164,4.1775,4.1794,4.1714,4.1952,4.1862,4.1882,4.1935,4.1963,4.1984,4.1977,4.162,0,0,0,0,0,4.137,4.1451,4.1475,4.1605,4.1628,4.163,4.1674,4.1657,4.1701,4.172,4.1741,4.1787,4.1863,4.1913,4.1984,4.2144,4.2154,4.2219,4.2241,4.2259,4.2276,4.2363,4.2392,4.2078,4.2077,4.2077,0,0,4.1455,4.1483,4.1535,4.1627,4.1658,4.1743,4.1646,4.174,4.1802,4.1734,4.1856,4.1874,4.1923,4.2068,4.2132,4.2088,4.2365,4.2276,4.229,4.2298,4.2379,4.2409,4.2436,4.2087,4.2085,4.2084,0,0,4.1652,4.1681,4.1793,4.1826,4.1875,4.1875,4.1902,4.1941,4.1949,4.2071,4.2022,4.2096,4.2228,4.2265,4.2301,4.2512,4.2472,4.2536,4.2652,4.2737,4.2762,4.2783,4.286,4.2887,4.2553,4.2553,4.2553,0,4.1752,4.1877,4.1854,4.1952,4.1994,4.1935,4.2048,4.2081,4.2152,4.2182,4.2131,4.2295,4.2324,4.2477,4.2528,4.2559,4.259,4.2531,4.276,4.2781,4.2802,4.2874,4.2903,4.2561,4.256,4.2559,4.2558,0,4.1997,4.2085,4.2168,4.2237,4.2288,4.2393,4.2387,4.2441,4.242,4.2425,4.255,4.2583,4.2659,4.2694,4.2674,4.2845,4.2816,4.2763,4.2672,4.284,4.2907,4.2935,4.2572,4.2569,4.2567,4.2565,0,0,4.2265,4.2319,4.235,4.2381,4.2431,4.2498,4.26,4.2675,4.2722,4.2772,4.2858,4.297,4.2922,4.2963,4.2946,4.302,4.3187,4.2958,4.2959,4.3,4.3378,4.3419,4.3451,4.3159,4.3164,4.3168,4.3374,0,4.2465,4.2642,4.2624,4.2793,4.2874,4.2819,4.2908,4.2948,4.2956,4.3026,4.3034,4.3115,4.3044,4.3068,4.3139,4.3151,4.3262,4.3136,4.324,4.3244,4.3231,4.3486,4.353,4.3723,4.34,4.3405,4.3408,0,4.2723,4.2781,4.2958,4.2995,4.3029,4.3109,4.3176,4.3243,4.3288,4.3288,4.3334,4.3305,4.3408,4.3314,4.3456,4.3371,4.3412,4.3424,4.3431,4.3442,4.3337,4.3505,4.3784,4.3813,4.3449,4.3446,4.3443,0,4.2902,4.3025,4.3147,4.3174,4.3221,4.3279,4.3301,4.334,4.3386,4.3444,4.3474,4.3544,4.3583,4.3638,4.3628,4.356,4.3774,4.3679,4.3778,4.3779,4.3827,4.3824,4.4117,4.3851,4.385,4.385,4.3849,0,4.3128,4.3239,4.3228,4.3303,4.3425,4.3404,4.3526,4.3541,4.3576,4.3653,4.3609,4.3683,4.3665,4.3738,4.3731,4.3851,4.3868,4.3872,4.3869,4.3877,4.3877,4.3905,4.3892,4.3858,4.3856,4.3854,4.3853,0,4.3349,4.3346,4.3476,4.3509,4.3519,4.3608,4.3637,4.3708,4.3711,4.381,4.3832,4.3838,4.3922,4.3917,4.4012,4.4007,4.4155,4.4136,4.414,4.4137,4.4237,4.4228,4.456,4.4603,4.4307,4.431,4.4312,0,4.3495,4.3579,4.362,4.3669,4.3695,4.3773,4.382,4.3801,4.3852,4.3909,4.3974,4.4053,4.4116,4.4253,4.4267,4.4339,4.4322,4.4433,4.4333,4.4338,4.4326,4.4322,4.433,4.4454,4.4457,4.446,4.4462,0,4.3754,4.3748,4.3816,4.3885,4.3942,4.3995,4.4043,4.4086,4.4072,4.4131,4.4216,4.4265,4.4362,4.4442,4.4511,4.4534,4.4498,4.4493,4.452,4.453,4.453,4.4533,4.4196,4.4486,4.4484,4.4482,4.4481,4.448,4.3943,4.4015,4.4055,4.4133,4.4168,4.4214,4.4282,4.4294,4.4365,4.4442,4.4426,4.4523,4.4565,4.4654,4.4684,4.4759,4.4719,4.4758,4.4768,4.4779,4.4791,4.4516,4.4771,4.477,4.477,4.4769,4.4769,0,4.42,4.4224,4.4295,4.4364,4.4426,4.4384,4.4435,4.449,4.4574,4.4617,4.4679,4.4778,4.4855,4.4874,4.4949,4.5005,4.499,4.5026,4.5022,4.5029,4.4821,4.4791,4.5037,4.5037,4.5037,4.5037,4.5037,4.5037,4.4342,4.4462,4.4461,4.4598,4.462,4.4713,4.4747,4.4789,4.4823,4.4934,4.4998,4.501,4.5043,4.512,4.5189,4.5193,4.5223,4.5266,4.5263,4.507,4.5043,4.5017,4.4989,4.5272,4.5273,4.5464,4.5466,4.5468]}]]